Sheridan, WY

2:29 PM MDT on September 20, 2019 (GMT -0600)
Sheridan County

Weather History for KSHR - August, 2019

Change the Weather History Date:

Saturday, August 17, 2019

  Actual Average Record
Temperature  
Mean Temperature 59 °F 69 °F  
Max Temperature 66 °F 87 °F 100 °F (1934)
Min Temperature 51 °F 52 °F 32 °F (2002)
Degree Days  
Heating Degree Days 6 1  
Month to date heating degree days 7 11  
Since 1 June heating degree days 163 184  
Since 1 July heating degree days 25 35  
Cooling Degree Days 0 5  
Month to date cooling degree days 108 106  
Year to date cooling degree days 302 338  
Since 1 June cooling degree days 302 334  
Growing Degree Days 9 (Base 50)    
Moisture  
Dew Point 49 °F    
Average Humidity 71    
Maximum Humidity 89    
Minimum Humidity 53    
Precipitation  
Precipitation 0.00 in 0.02 in 0.64 in (1960)
Month to date precipitation 0.16 0.39  
Year to date precipitation 12.62 9.72  
Sea Level Pressure  
Sea Level Pressure 29.86 in    
Wind  
Wind Speed 7 mph (NNW)    
Max Wind Speed 20 mph    
Max Gust Speed 27 mph    
Visibility 10 miles    
Events      
T = Trace of Precipitation, MM = Missing Value Source: NWS Daily Summary

Daily Weather History Graph

Daily Weather History Graph

Search for Another Location

Airport or City:

Astronomy

Aug. 17, 2019 Rise Set
Actual Time 6:12 AM MDT 8:10 PM MDT
Civil Twilight 5:40 AM MDT 8:42 PM MDT
Nautical Twilight 5:01 AM MDT 9:20 PM MDT
Astronomical Twilight 4:19 AM MDT 10:03 PM MDT
Moon 9:35 PM MDT (8/17) 8:06 AM MDT (8/17)
Length of Visible Light 15h 01m
Length of Day
13h 58m
Waning Gibbous, 96% of the Moon is Illuminated
Aug 17
Waning Gibbous
Aug 23
Last Quarter
Aug 30
New
Sep 5
First Quarter
Sep 13
Full

Hourly Weather History & Observations

Time (MDT) Temp. Dew Point Humidity Pressure Visibility Wind Dir Wind Speed Gust Speed Precip Events Conditions
12:53 AM 57.0 °F 46.0 °F 67% 29.80 in 10.0 mi Variable 3.5 mph - N/A   Scattered Clouds
1:53 AM 55.9 °F 46.9 °F 72% 29.78 in 10.0 mi Calm Calm - N/A   Clear
2:53 AM 55.0 °F 45.0 °F 69% 29.75 in 10.0 mi NNW 6.9 mph - N/A   Clear
3:53 AM 57.0 °F 46.0 °F 67% 29.74 in 10.0 mi WNW 6.9 mph - N/A   Scattered Clouds
4:53 AM 59.0 °F 43.0 °F 55% 29.74 in 10.0 mi Calm Calm - N/A   Mostly Cloudy
5:53 AM 60.1 °F 45.0 °F 57% 29.75 in 10.0 mi WNW 15.0 mph 25.3 mph N/A   Clear
6:53 AM 57.9 °F 50.0 °F 75% 29.79 in 10.0 mi WNW 15.0 mph - N/A   Clear
7:53 AM 57.9 °F 51.1 °F 78% 29.82 in 10.0 mi WNW 11.5 mph - N/A   Clear
8:48 AM 60.8 °F 51.8 °F 72% 29.89 in 10.0 mi NW 10.4 mph - N/A   Mostly Cloudy
8:53 AM 60.1 °F 51.1 °F 72% 29.83 in 10.0 mi NW 9.2 mph - N/A   Mostly Cloudy
9:53 AM 61.0 °F 51.1 °F 70% 29.83 in 10.0 mi NW 9.2 mph - N/A   Overcast
10:53 AM 59.0 °F 51.1 °F 75% 29.85 in 10.0 mi NNW 8.1 mph - N/A   Overcast
11:03 AM 59.0 °F 51.1 °F 75% 29.90 in 10.0 mi NNE 6.9 mph - N/A   Overcast
11:53 AM 60.1 °F 51.1 °F 72% 29.85 in 10.0 mi North 8.1 mph - N/A   Overcast
12:38 PM 62.1 °F 51.1 °F 67% 29.89 in 10.0 mi North 8.1 mph - N/A   Overcast
12:53 PM 63.0 °F 52.0 °F 67% 29.83 in 10.0 mi North 8.1 mph - N/A   Overcast
1:01 PM 63.0 °F 52.0 °F 67% 29.89 in 10.0 mi North 8.1 mph - N/A   Overcast
1:53 PM 64.9 °F 51.1 °F 61% 29.83 in 10.0 mi North 4.6 mph - N/A   Overcast
2:53 PM 64.0 °F 51.1 °F 63% 29.84 in 10.0 mi NW 13.8 mph - N/A   Mostly Cloudy
3:53 PM 64.9 °F 52.0 °F 63% 29.85 in 10.0 mi NW 17.3 mph - N/A   Overcast
4:17 PM 60.1 °F 51.1 °F 72% 29.92 in 10.0 mi NW 12.7 mph - N/A   Overcast
4:53 PM 57.9 °F 50.0 °F 75% 29.89 in 10.0 mi North 12.7 mph - N/A   Overcast
5:53 PM 57.0 °F 48.9 °F 74% 29.91 in 10.0 mi NNE 8.1 mph - N/A   Overcast
6:11 PM 57.0 °F 48.0 °F 72% 29.96 in 10.0 mi North 8.1 mph - N/A   Overcast
6:53 PM 57.0 °F 48.0 °F 72% 29.91 in 10.0 mi ENE 4.6 mph - N/A   Overcast
7:24 PM 57.0 °F 48.9 °F 74% 29.95 in 10.0 mi Calm Calm - N/A   Overcast
7:53 PM 57.0 °F 48.9 °F 74% 29.91 in 10.0 mi Calm Calm - N/A   Overcast
8:53 PM 57.0 °F 48.9 °F 74% 29.91 in 10.0 mi Calm Calm - N/A   Overcast
9:53 PM 57.0 °F 48.9 °F 74% 29.93 in 10.0 mi SSE 3.5 mph - N/A   Overcast
10:24 PM 53.1 °F 48.0 °F 83% 29.97 in 10.0 mi South 6.9 mph - N/A   Scattered Clouds
10:53 PM 52.0 °F 48.0 °F 86% 29.94 in 10.0 mi South 3.5 mph - N/A   Clear
11:53 PM 52.0 °F 48.0 °F 86% 29.93 in 10.0 mi SW 3.5 mph - N/A   Clear